Погода Торгай

Погода Торгай : погода сейчас, прогноз погоды и архив. Всё, что Вы хотите узнать о погоде Торгай!

Хотите узнать прогноз погоды Торгай? Тогда Вам сюда: Погода Торгай

Поиск расширенной информации на нашем сайте:

Другие новости

Новости СМИ2

Главная страница сайта

Новости сайта

03.07.2017

Напоминаем, что на нашем специализированном сайте Метеоцентр.Азия вы можете получить высокодетализированные автоматические прогнозы погоды по пунктам России, СНГ и мира в авиационном формате (включающие направление и скорость ветра, видимость, явления погоды, количество и форму облачности, нижнюю и верхнюю границу облачности).

Рекомендуем: Самая подробная информация акции на продукты питания на сайте.

Погода Торгай - сегодня

Время (UTC), дата Ветер
(°,м/с) 
Видим.   Явления Облачность Т
(°С)
Тd
(°С)
f(%) Тe
(°С)
Pmin
(гПа)
dP
(гПа)
Po
(мм)
O2
(г/м3)
Тmin Tmax R s Состояние
почвы
03 22.11.17 110 (В) 10 км    9/0 средняя 
[Ac lent]
+0.2 -3.7 75 +1  1023.5  755  304           
06 22.11.17 110 (В) 10 км    6/6 1000 м 
[Sc]
+1.2 -4.8 64 +1  1023.4  -0.1  755  303  -0.8         
09 22.11.17 110 (В) 10 км    8/0 средняя 
[Ac lent]
+4.5 -3.9 54 +3  1021.9  -1.2  754  299           
12 22.11.17 110 (В) 10 км    8/0 средняя 
[Ac lent]
+4 -4 56 +4  1020.9  -1  753  300           
15 22.11.17 110 (В) н/о    3/0 средняя 
[Ac lent]
+0.7 -5.4 64 1020.8  -0.4  753  303    +4.7       
18 22.11.17 110 (В) н/о    ясно 
-1 -5.6 71 -2  1020.5  -0.4  752  305    +4.7       
21 22.11.17 110 (В) н/о    ясно 
-1.5 -5.6 74 -2  1020.2  -0.3  752  305           
00 23.11.17 110 (В) н/о    ясно 
-2.2 -5.8 76 -4  1018.9  -1.3  751  306           
03 23.11.17 110 (В) 10 км    3/0 средняя 
[Ac lent]
-2.9 -6 79 -5  1018.6  -0.3  751  307           
06 23.11.17 050 (СВ) 10 км    4/0 средняя 
[Ac trans]
+0.4 -4.3 71 1018.5  0.1  751  303  -2.9         
09 23.11.17 050 (СВ) 10 км    4/0 верхняя 
[Ci ing]
+7.5 -5.4 39 +7  1016.4  -1.7  750  295           
12 23.11.17 050 (СВ) 10 км    6/0 средняя 
[Ac lent]
+5.6 -2.8 55 +6  1016  -0.4  750  296           
15 23.11.17 050 (СВ) н/о    9/0 средняя 
[Ac lent]
+2.8 -4.1 60 +4  1015.9  -0.4  749  299    +7.7       
18 23.11.17 020 (С) н/о    8/0 средняя 
[Ac lent]
+1.2 -4 68 +2  1016.8  0.7  750  301    +7.7       
21 23.11.17 020 (С) н/о    6/0 средняя 
[Ac trans]
+0.5 -3.8 73 +1  1017.2  0.4  750  302           
00 24.11.17 020 (С) н/о    6/0 средняя 
[Ac trans]
-0.3 -4.1 75 1017.9  0.7  751  303           
03 24.11.17 020 (С) 10 км    3/0 средняя 
[Ac lent]
-2 -5.1 79 -1  1016.4  -1.5  749  305           
06 24.11.17 020 (С) 10 км    4/0 средняя 
[Ac lent]
+1.7 -3.5 68 +2  1017  0.8  750  301  -2         
09 24.11.17 110 (В) 10 км    4/0 верхняя 
[Ci fib]
+6.2 -5 44 +7  1015.8  -0.9  749  296           
12 24.11.17 110 (В) 10 км    4/0 верхняя 
[Ci fib]
+5 -4.8 49 +6  1015.6  -0.3  749  297           
15 24.11.17 090 (В) н/о    ясно 
+1.8 -4.3 64 +3  1015.9  0.1  749  300    +6.4       
18 24.11.17 070 (В) н/о    ясно 
-1.1 -5.9 70 -1  1015.9  -0.2  749  304    +6.4       
21 24.11.17 070 (В) н/о    ясно 
-1.2 -5.5 73 -1  1016.3  0.4  749  304           
00 25.11.17 110 (В) н/о    ясно 
-0.9 -3.7 81 1016.3  749  303           
03 25.11.17 290 (З) 10 км    4/0 средняя 
[Ac lent]
-1 -4.6 77 1015.9  -0.4  749  303           
Время (UTC), дата Ветер
(°,м/с) 
Видим.   Явления Облачность Т
(°С)
Тd
(°С)
f(%) Тe
(°С)
Pmin
(гПа)
dP
(гПа)
Po
(мм)
O2
(г/м3)
Тmin Tmax R s Состояние
почвы

Для получения пояснительной информации подведите курсор к названию столбца.

ПОГОДА Торгай - архив

Всё, что Вы хотите узнать о погоде Торгай - удобно и подробно!

Выберите нужную дату (начиная с 1 января 2015* года) и нажмите кнопку "Найти".
Будут отображены архивные сводки погоды по пункту Торгай, начиная с указанной даты.


Отображать данные в формате CSV (для использования в таблицах Excel)


Внимание! Наш архив погоды предназначен исключительно для личного некоммерческого использования в познавательных целях. Если Вам необходимы официальные справки о состоянии погоды (для производственных, юридических, коммерческих и т.п. целей), обращайтесь в органы Росгидромета.

*Примечание: данная дата относится к архиву по метеостанциям СССР (Россия, СНГ, Балтия).
Архив по метеостанциям Зарубежной Европы и Азии (кроме Китая) хранится 10 дней, по другим регионам земного шара (Китай, Африка, Америка, Австралия, Океания) - 1 день.

Торгай - район местоположения метеостанции


Название, широта, долгота, высота метеостанции:
Торгай 49.7°ш. 63.5°д. 123 м над ур. моря [Казахстан]

Дополнительная информация

В oтличие oт бoльшинства пoгoдных сайтoв мы публикуем пoдрoбную метеoинфoрмацию в детальнoм прoфессиoнальнoм фoрмате.

Характеристики температуры и влажнoсти вoздуха измеряются на высoте 2 м в тени вдали oт зданий и деревьев.
Скoрoсть ветра измеряется на высoте 10 м (на урoвне рoста челoвека скoрoсть ветра ниже в 1.5-2 раза). Если метеoстанция нахoдится в гoрoде или в лесу, тo скoрoсть ветра занижена на 2-4 м/с пo сравнению с oткрытым местoм. Скoрoсть ветра над акватoриями крупных рек и oзёр, а также на вершинах хoлмoв на 2-5 м/с выше, чем в oбычных услoвиях.
Атмoсфернoе давление в разных тoчках местнoсти мoжет значительнo oтличаться oт давления на метеoстанции, в зависимoсти oт услoвий рельефа (при пoдъёме на 10 м давление пoнижается примернo на 1 мм рт.ст.).